Location: Andershausen
(51.8462°N, 9.8595°E)
Time: 23:15:33
(UTC+00:00)

Cosmos 2278 Rocket - Pass Details

Date: 18 November 2025
Orbit: 841 x 843 km, 71.0° (Epoch: 04 December)

Event Time Altitude Azimuth Distance (km) Brightness Sun altitude
Rises 15:53:45 0° 167° (SSE) 3,386 5.5 -4.6°
Reaches altitude 10° 15:56:37 10° 154° (SSE) 2,456 4.6 -5.0°
Maximum altitude 16:00:59 24° 102° (ESE) 1,691 3.4 -5.6°
Drops below altitude 10° 16:05:23 10° 51° (NE) 2,469 4.0 -6.3°
Enters shadow 16:06:41 - 44° (NE) 2,876 4.4 -6.5°
